| time (UTC) | temp F | wind direction | speed knots | gust knots | rain 1hr in | rain 24hr in | rain mn in | humidity % | barometer mb |
| 20260507223948 | 37 | 0.0 | 0.0 | 0.00 | 0.45 | 0.10 | 85 | ||
| 20260507222949 | 37 | 0.0 | 0.0 | 0.00 | 0.51 | 0.10 | 85 | ||
| 20260507221949 | 38 | 0.0 | 0.0 | 0.00 | 0.56 | 0.10 | 85 | ||
| 20260507220946 | 38 | 0.0 | 0.0 | 0.00 | 0.60 | 0.10 | 85 | ||
| 20260507215953 | 38 | 0.0 | 0.0 | 0.00 | 0.64 | 0.10 | 85 | ||
| 20260507214950 | 39 | 0.0 | 0.0 | 0.00 | 0.69 | 0.10 | 85 | ||
| 20260507214125 | 39 | 0.0 | 0.0 | 0.00 | 0.73 | 0.10 | 85 | ||
| 20260507213946 | 39 | 0.0 | 0.0 | 0.00 | 0.73 | 0.10 | 85 | ||
| 20260507212944 | 40 | 0.0 | 0.0 | 0.00 | 0.79 | 0.10 | 85 | ||
| 20260507211944 | 41 | 0.0 | 0.0 | 0.00 | 0.84 | 0.10 | 85 | ||
| 20260507210944 | 42 | 0.0 | 0.0 | 0.00 | 0.90 | 0.10 | 85 | ||
| 20260507204944 | 43 | 0.0 | 0.0 | 0.00 | 1.01 | 0.10 | 85 | ||
| 20260507203944 | 43 | 0.0 | 0.0 | 0.00 | 1.06 | 0.10 | 85 | ||
| 20260507201944 | 43 | 0.0 | 0.0 | 0.00 | 1.16 | 0.10 | 85 | ||
| 20260507200944 | 43 | 0.0 | 0.0 | 0.00 | 1.21 | 0.10 | 85 | ||
| 20260507195944 | 43 | 0.0 | 0.0 | 0.00 | 1.26 | 0.10 | 85 | ||
| 20260507194944 | 42 | 0.0 | 0.0 | 0.00 | 1.32 | 0.10 | 85 | ||
| 20260507193944 | 42 | 0.0 | 0.0 | 0.00 | 1.37 | 0.10 | 84 | ||
| 20260507192944 | 42 | 0.0 | 0.0 | 0.00 | 1.40 | 0.10 | 84 | ||
| 20260507191944 | 42 | 0.0 | 0.0 | 0.00 | 1.41 | 0.10 | 84 | ||
| 20260507190944 | 43 | 0.0 | 0.0 | 0.00 | 1.43 | 0.10 | 84 | ||
| 20260507184944 | 43 | 0.0 | 0.0 | 0.00 | 1.48 | 0.10 | 83 | ||
| 20260507182944 | 43 | 0.0 | 0.0 | 0.00 | 1.53 | 0.10 | 82 | ||
| 20260507180944 | 45 | 0.0 | 0.0 | 0.00 | 1.61 | 0.10 | 82 | ||
| 20260507174944 | 45 | 0.0 | 0.0 | 0.00 | 1.64 | 0.10 | 82 | ||
| 20260507172944 | 46 | 0.0 | 0.0 | 0.00 | 1.70 | 0.10 | 79 | ||
| 20260507170944 | 47 | 0.0 | 0.0 | 0.00 | 1.72 | 0.10 | 77 | ||
| 20260507165944 | 47 | 0.0 | 0.0 | 0.00 | 1.74 | 0.10 | 77 | ||
| 20260507164948 | 47 | 0.0 | 0.0 | 0.00 | 1.74 | 0.10 | 76 | ||
| 20260507161945 | 48 | 0.0 | 0.0 | 0.00 | 1.75 | 0.10 | 75 | ||
| 20260507155944 | 49 | 0.0 | 0.0 | 0.00 | 1.75 | 0.10 | 74 | ||
| 20260507152944 | 49 | 0.0 | 0.0 | 0.00 | 1.75 | 0.10 | 76 | ||
| 20260507151944 | 49 | 0.0 | 0.0 | 0.00 | 1.76 | 0.10 | 75 | ||
| 20260507150944 | 50 | 0.0 | 0.0 | 0.00 | 1.76 | 0.10 | 74 | ||
| 20260507145944 | 50 | 0.0 | 0.0 | 0.00 | 1.78 | 0.10 | 75 | ||
| 20260507142946 | 50 | 0.0 | 0.0 | 0.00 | 1.80 | 0.10 | 75 | ||
| 20260507141944 | 49 | 0.0 | 0.0 | 0.00 | 1.82 | 0.10 | 74 | ||
| 20260507140944 | 50 | 0.0 | 0.0 | 0.00 | 1.85 | 0.10 | 72 | ||
| 20260507134944 | 51 | 0.0 | 0.0 | 0.00 | 1.92 | 0.10 | 69 | ||
| 20260507133944 | 52 | 0.0 | 0.0 | 0.00 | 1.96 | 0.10 | 67 | ||
| 20260507132944 | 53 | 0.0 | 0.0 | 0.00 | 1.98 | 0.10 | 68 | ||
| 20260507131944 | 53 | 0.0 | 0.0 | 0.00 | 2.01 | 0.10 | 68 | ||
| 20260507130944 | 53 | 0.0 | 0.0 | 0.00 | 2.04 | 0.10 | 66 | ||
| 20260507124944 | 54 | 0.0 | 0.0 | 0.00 | 2.09 | 0.10 | 69 | ||
| 20260507124213 | 52 | 0.0 | 0.0 | 0.00 | 2.12 | 0.10 | 70 | ||
| 20260507123944 | 52 | 0.0 | 0.0 | 0.00 | 2.12 | 0.10 | 70 | ||
| 20260507122944 | 53 | 0.0 | 0.0 | 0.00 | 2.14 | 0.10 | 72 | ||
| 20260507121944 | 51 | 0.0 | 0.0 | 0.00 | 2.16 | 0.10 | 74 | ||
| 20260507120944 | 52 | 0.0 | 0.0 | 0.00 | 2.19 | 0.10 | 76 | ||
| 20260507115944 | 50 | 0.0 | 0.0 | 0.00 | 2.21 | 0.10 | 77 | ||
| 20260507114213 | 51 | 0.0 | 0.0 | 0.00 | 2.27 | 0.10 | 79 | ||
| 20260507113944 | 51 | 0.0 | 0.0 | 0.00 | 2.27 | 0.10 | 79 | ||
| 20260507112944 | 48 | 0.0 | 0.0 | 0.00 | 2.30 | 0.10 | 80 | ||
| 20260507111944 | 48 | 0.0 | 0.0 | 0.00 | 2.32 | 0.10 | 80 | ||
| 20260507110944 | 48 | 0.0 | 0.0 | 0.00 | 2.36 | 0.10 | 80 | ||
| 20260507105944 | 48 | 0.0 | 0.0 | 0.00 | 2.39 | 0.10 | 79 | ||
| 20260507104944 | 49 | 0.0 | 0.0 | 0.03 | 2.41 | 0.10 | 81 | ||
| 20260507103944 | 48 | 0.0 | 0.0 | 0.03 | 2.44 | 0.10 | 81 | ||
| 20260507102944 | 48 | 0.0 | 0.0 | 0.03 | 2.47 | 0.10 | 82 | ||
| 20260507100944 | 48 | 0.0 | 0.0 | 0.02 | 2.51 | 0.09 | 79 | ||
| 20260507093944 | 49 | 0.0 | 0.0 | 0.00 | 2.52 | 0.07 | 78 | ||
| 20260507092944 | 50 | 0.0 | 0.0 | 0.00 | 2.52 | 0.07 | 80 | ||
| 20260507091944 | 50 | 0.0 | 0.0 | 0.00 | 2.52 | 0.07 | 79 | ||
| 20260507090944 | 50 | 0.0 | 0.0 | 0.00 | 2.52 | 0.07 | 75 | ||
| 20260507085944 | 50 | 0.0 | 0.0 | 0.00 | 2.52 | 0.07 | 80 | ||
| 20260507084944 | 50 | 0.0 | 0.0 | 0.00 | 2.53 | 0.07 | 83 | ||
| 20260507083944 | 49 | 0.0 | 0.0 | 0.00 | 2.55 | 0.07 | 84 | ||
| 20260507082944 | 49 | 0.0 | 0.0 | 0.00 | 2.57 | 0.07 | 85 | ||
| 20260507081944 | 49 | 0.0 | 0.0 | 0.00 | 2.59 | 0.07 | 85 | ||
| 20260507080944 | 48 | 0.0 | 0.0 | 0.00 | 2.61 | 0.07 | 85 | ||
| 20260507074944 | 48 | 0.0 | 0.0 | 0.00 | 2.67 | 0.07 | 85 | ||
| 20260507073944 | 49 | 0.0 | 0.0 | 0.00 | 2.69 | 0.07 | 87 | ||
| 20260507072944 | 48 | 0.0 | 0.0 | 0.00 | 2.71 | 0.07 | 87 | ||
| 20260507071944 | 48 | 0.0 | 0.0 | 0.00 | 2.71 | 0.07 | 87 | ||
| 20260507070944 | 48 | 0.0 | 0.0 | 0.00 | 2.71 | 0.07 | 87 | ||
| 20260507065944 | 48 | 0.0 | 0.0 | 0.00 | 2.71 | 0.07 | 87 | ||
| 20260507064944 | 47 | 0.0 | 0.0 | 0.00 | 2.72 | 0.07 | 87 | ||
| 20260507063944 | 47 | 0.0 | 0.0 | 0.00 | 2.72 | 0.07 | 87 | ||
| 20260507062944 | 47 | 0.0 | 0.0 | 0.00 | 2.74 | 0.07 | 87 | ||
| 20260507061944 | 47 | 0.0 | 0.0 | 0.00 | 2.74 | 0.07 | 87 | ||
| 20260507055944 | 47 | 0.0 | 0.0 | 0.00 | 2.75 | 0.07 | 87 | ||
| 20260507054944 | 46 | 0.0 | 0.0 | 0.00 | 2.75 | 0.07 | 87 | ||
| 20260507051946 | 46 | 0.0 | 0.0 | 0.00 | 2.76 | 0.07 | 87 | ||
| 20260507044947 | 46 | 0.0 | 0.0 | 0.00 | 2.77 | 0.07 | 87 | ||
| 20260507043946 | 46 | 0.0 | 0.0 | 0.00 | 2.77 | 0.07 | 87 | ||
| 20260507041947 | 46 | 0.0 | 0.0 | 0.00 | 2.78 | 0.07 | 87 | ||
| 20260507035946 | 46 | 0.0 | 0.0 | 0.00 | 2.78 | 0.07 | 87 | ||
| 20260507032946 | 47 | 0.0 | 0.0 | 0.00 | 2.77 | 0.06 | 87 | ||
| 20260507031948 | 47 | 0.0 | 0.0 | 0.01 | 2.77 | 0.06 | 87 | ||
| 20260507030947 | 47 | 0.0 | 0.0 | 0.01 | 2.77 | 0.06 | 87 | ||
| 20260507025953 | 46 | 0.0 | 0.0 | 0.01 | 2.77 | 0.06 | 87 | ||
| 20260507024948 | 46 | 0.0 | 0.0 | 0.01 | 2.78 | 0.06 | 87 | ||
| 20260507023948 | 46 | 0.0 | 0.0 | 0.01 | 2.78 | 0.06 | 87 | ||
| 20260507022946 | 46 | 0.0 | 0.0 | 0.01 | 2.78 | 0.06 | 87 | ||
| 20260507021946 | 46 | 0.0 | 0.0 | 0.00 | 2.76 | 0.04 | 87 | ||
| 20260507020946 | 46 | 0.0 | 0.0 | 0.00 | 2.76 | 0.04 | 87 | ||
| 20260507014950 | 46 | 0.0 | 0.0 | 0.00 | 2.76 | 0.04 | 87 | ||
| 20260507013954 | 46 | 0.0 | 0.0 | 0.00 | 2.76 | 0.04 | 87 | ||
| 20260507012947 | 46 | 0.0 | 0.0 | 0.00 | 2.76 | 0.04 | 87 | ||
| 20260507011946 | 46 | 0.0 | 0.0 | 0.01 | 2.76 | 0.04 | 87 | ||
| 20260507010946 | 46 | 0.0 | 0.0 | 0.02 | 2.76 | 0.04 | 87 | ||
| 20260507010204 | 46 | 0.0 | 0.0 | 0.04 | 2.76 | 0.04 | 87 | ||
| 20260507005952 | 46 | 0.0 | 0.0 | 0.04 | 2.76 | 0.04 | 87 | ||
| 20260507004948 | 46 | 0.0 | 0.0 | 0.07 | 2.76 | 0.04 | 87 | ||
| 20260507003947 | 46 | 0.0 | 0.0 | 0.10 | 2.76 | 0.04 | 87 | ||
| 20260507002946 | 46 | 0.0 | 0.0 | 0.13 | 2.76 | 0.04 | 87 | ||
| 20260507001946 | 46 | 0.0 | 0.0 | 0.17 | 2.75 | 0.03 | 87 | ||
| 20260507000950 | 46 | 0.0 | 0.0 | 0.21 | 2.74 | 0.02 | 87 | ||
| 20260507000214 | 46 | 0.0 | 0.0 | 0.24 | 2.73 | 0.00 | 87 | ||
| 20260506235951 | 46 | 0.0 | 0.0 | 0.24 | 2.73 | 0.00 | 87 | ||
| 20260506234946 | 45 | 0.0 | 0.0 | 0.27 | 2.71 | 2.71 | 87 | ||
| 20260506230952 | 43 | 0.0 | 0.0 | 0.31 | 2.54 | 2.54 | 87 | ||
| 20260506225947 | 43 | 0.0 | 0.0 | 0.30 | 2.49 | 2.49 | 87 |